KD7RJ Weather Reports


time (UTC)temp
F
wind
direction
speed
knots
gust
knots
rain 1hr
in
rain 24hr
in
rain mn
in
humidity
%
barometer
mb
20260901173029 60 161 0.0 4.3 0.00 0.00 0.00 93 1011.2
20260901171528 60 161 0.0 5.2 0.00 0.00 0.00 93 1011.1
20260901170011 59 161 0.0 5.2 0.00 0.00 0.00 92 1011.0
20260901164509 59 161 0.0 2.6 0.00 0.00 0.00 93 1010.9
20260901163051 59 161 0.0 2.6 0.00 0.00 0.00 93 1011.0
20260901161601 59 161 0.0 1.7 0.00 0.00 0.00 92 1011.0
20260901160033 59 161 0.0 0.0 0.00 0.00 0.00 92 1010.9
20260901154532 59 161 0.0 0.0 0.00 0.00 0.00 91 1011.0
20260901153027 59 161 0.0 0.0 0.00 0.00 0.00 91 1011.0
20260901151516 59 161 0.0 0.0 0.00 0.00 0.00 90 1010.9
20260901150054 59 161 0.0 0.0 0.00 0.00 0.00 90 1010.8
20260901144555 59 161 0.0 0.0 0.00 0.00 0.00 90 1010.6
20260901143038 59 161 0.0 0.0 0.00 0.00 0.00 89 1010.7
20260901141533 59 161 0.0 0.0 0.00 0.00 0.00 88 1010.6
20260901140021 59 161 0.0 0.0 0.00 0.00 0.00 88 1010.6
20260901134515 59 161 0.0 0.0 0.00 0.00 0.00 87 1010.4
20260901133106 59 161 0.0 0.0 0.00 0.00 0.00 86 1010.3
20260901131557 59 161 0.0 0.0 0.00 0.00 0.00 86 1010.3
20260901130037 59 161 0.9 3.5 0.00 0.00 0.00 86 1010.2
20260901124537 59 161 0.0 0.0 0.00 0.00 0.00 86 1010.1
20260901123022 59 161 0.0 2.6 0.00 0.00 0.00 86 1010.2
20260901121521 59 161 0.0 6.1 0.00 0.00 0.00 86 1010.1
20260901120123 59 161 0.0 3.5 0.00 0.00 0.00 86 1010.1
20260901114601 59 160 0.0 5.2 0.00 0.00 0.00 86 1010.1
20260901113101 59 161 0.0 5.2 0.00 0.00 0.00 86 1010.2
20260901111540 59 161 0.0 3.5 0.00 0.00 0.00 86 1010.0
20260901110039 59 161 0.0 3.5 0.00 0.00 0.00 86 1009.8
20260901104538 59 161 0.0 0.9 0.00 0.00 0.00 87 1009.8
20260901103019 59 161 0.0 0.9 0.00 0.00 0.00 86 1009.7
20260901101607 59 161 0.0 2.6 0.00 0.00 0.00 85 1009.8
20260901100059 59 161 0.0 0.0 0.00 0.00 0.00 85 1009.7
20260901094541 60 161 1.7 3.5 0.00 0.00 0.00 85 1009.5
20260901093047 60 161 0.0 2.6 0.00 0.00 0.00 84 1009.4
20260901091519 60 161 0.0 0.0 0.00 0.00 0.00 84 1009.2
20260901090021 61 161 0.0 2.6 0.00 0.00 0.00 83 1009.1
20260901084555 61 161 0.0 6.1 0.00 0.00 0.00 82 1009.0
20260901083054 61 160 0.0 7.0 0.00 0.00 0.00 82 1009.1
20260901081534 62 160 1.7 5.2 0.00 0.00 0.00 81 1009.1
20260901080035 62 159 0.9 5.2 0.00 0.00 0.00 80 1008.9
20260901074513 63 159 2.6 7.0 0.00 0.00 0.00 78 1008.8
20260901073010 64 160 1.7 6.1 0.00 0.00 0.00 77 1008.6
20260901071602 64 161 2.6 6.1 0.00 0.00 0.00 75 1008.6
20260901070048 65 161 0.0 7.8 0.00 0.00 0.00 75 1008.3
20260901064529 65 209 0.9 4.3 0.00 0.00 0.00 76 1008.1
20260901063025 66 209 0.0 0.0 0.00 0.00 0.00 75 1007.7
20260901061505 66 209 0.0 0.0 0.00 0.00 0.00 74 1007.6
20260901060002 67 209 0.0 0.0 0.00 0.00 0.00 72 1007.4
20260901054541 68 209 0.0 0.0 0.00 0.00 0.00 70 1007.2
20260901053040 69 209 0.0 0.0 0.00 0.00 0.00 68 1007.2
20260901051518 70 209 0.0 0.0 0.00 0.00 0.00 67 1007.2
20260901050016 71 209 0.0 3.5 0.00 0.00 0.00 65 1007.1
20260901044604 71 209 0.9 5.2 0.00 0.00 0.00 63 1007.0
20260901043113 72 209 0.0 0.0 0.00 0.00 0.00 59 1006.8
20260901041533 72 209 0.0 0.0 0.00 0.00 0.00 58 1006.6
20260901040030 73 209 0.0 0.0 0.00 0.00 0.00 57 1006.3
20260901034508 74 209 0.0 0.0 0.00 0.00 0.00 55 1006.1
20260901033007 76 209 0.0 0.0 0.00 0.00 0.00 53 1005.9
20260901031603 77 209 0.0 0.0 0.00 0.00 0.00 50 1005.7
20260901030045 79 209 0.0 0.0 0.00 0.00 0.00 47 1005.7
20260901024518 80 209 0.0 1.7 0.00 0.00 0.00 45 1005.7
20260901023023 82 209 0.0 3.5 0.00 0.00 0.00 44 1005.6
20260901021556 84 211 2.6 6.1 0.00 0.00 0.00 40 1005.5
20260901020049 86 230 0.0 0.9 0.00 0.00 0.00 33 1005.5
20260901014529 86 230 0.0 0.0 0.00 0.00 0.00 31 1005.4
20260901013037 86 230 0.0 1.7 0.00 0.00 0.00 30 1005.4
20260901011515 86 230 0.0 1.7 0.00 0.00 0.00 30 1005.6
20260901010018 87 230 0.9 4.3 0.00 0.00 0.00 30 1005.5
20260901004552 88 217 0.0 4.3 0.00 0.02 0.00 32 1005.6
20260901003100 89 256 1.7 5.2 0.00 0.02 0.00 31 1005.6
20260901001548 89 234 0.0 7.8 0.00 0.02 0.00 32 1005.7
20260901000032 90 221 0.0 6.1 0.00 0.02 0.00 32 1005.8
20260831234511 89 216 0.0 3.5 0.00 0.04 0.00 32 1005.8
20260831233009 89 216 0.0 6.1 0.00 0.04 0.00 32 1005.8
20260831231557 88 264 0.0 4.3 0.00 0.04 0.00 33 1005.9
20260831230055 88 249 0.0 6.1 0.00 0.04 0.00 33 1006.1
20260831224556 89 207 0.9 4.3 0.00 0.08 0.00 34 1006.2
20260831223052 89 198 0.0 6.1 0.00 0.08 0.00 34 1006.4
20260831221559 88 173 0.0 3.5 0.00 0.08 0.00 34 1006.5
20260831220047 88 175 3.5 5.2 0.00 0.08 0.00 35 1006.5
20260831214553 87 167 0.9 5.2 0.00 0.08 0.00 35 1006.8
20260831213049 85 176 0.9 7.0 0.00 0.08 0.00 38 1006.9
20260831211521 85 225 0.9 5.2 0.00 0.08 0.00 38 1007.0
20260831210021 85 312 0.0 5.2 0.00 0.08 0.00 38 1007.1
20260831204559 84 215 0.0 2.6 0.00 0.08 0.00 38 1007.3
20260831203103 82 153 0.0 4.3 0.00 0.08 0.00 39 1007.5
20260831201535 81 147 0.0 3.5 0.00 0.08 0.00 41 1007.8
20260831200034 80 173 0.0 5.2 0.00 0.08 0.00 42 1008.0
20260831194514 79 80 0.9 3.5 0.00 0.08 0.00 43 1008.2
20260831193009 78 349 0.0 4.3 0.00 0.08 0.00 45 1008.3
20260831191557 77 72 0.0 4.3 0.00 0.08 0.00 47 1008.5
20260831190047 76 63 0.0 3.5 0.00 0.08 0.00 49 1008.8
20260831184522 74 24 0.0 6.1 0.00 0.08 0.00 54 1008.9
20260831183017 73 346 0.9 3.5 0.00 0.08 0.00 56 1009.1
20260831181559 72 349 0.0 2.6 0.00 0.08 0.00 59 1009.4
20260831180055 71 46 0.9 4.3 0.00 0.08 0.00 59 1009.5
20260831174535 70 59 0.0 0.0 0.00 0.08 0.00 64 1009.7